GW4746 Weather Reports


time (UTC)temp
C
wind
direction
speed
KPH
gust
KPH
rain 1hr
cm
rain 24hr
cm
rain mn
cm
humidity
%
barometer
mb
20260510044527 25 193 3.2 9.7 0.00 0.00 0.00 57 1009.2
20260510043020 25 149 3.2 6.4 0.00 0.00 0.00 56 1009.3
20260510041522 25 203 3.2 12.9 0.00 0.00 0.00 55 1009.3
20260510040011 25 198 1.6 11.3 0.00 0.00 0.00 54 1009.2
20260510034511 26 160 1.6 9.7 0.00 0.00 0.00 52 1009.2
20260510033014 26 207 3.2 11.3 0.00 0.00 0.00 50 1009.1
20260510031522 26 210 3.2 8.0 0.00 0.00 0.00 47 1009.1
20260510030030 26 195 3.2 8.0 0.00 0.00 0.00 45 1009.0
20260510024510 27 165 0.0 4.8 0.00 0.00 0.00 43 1009.0
20260510023012 27 169 1.6 3.2 0.00 0.00 0.00 41 1008.9
20260510021520 27 161 0.0 3.2 0.00 0.00 0.00 39 1008.8
20260510020028 28 153 1.6 6.4 0.00 0.00 0.00 37 1008.6
20260510014526 28 190 0.0 4.8 0.00 0.00 0.00 36 1008.3
20260510013026 29 161 1.6 6.4 0.00 0.00 0.00 34 1008.2
20260510011533 30 184 1.6 6.4 0.00 0.00 0.00 32 1007.9
20260510010022 31 156 1.6 8.0 0.00 0.00 0.00 30 1008.1
20260510004523 31 202 3.2 6.4 0.00 0.00 0.00 29 1008.2
20260510003027 32 177 3.2 8.0 0.00 0.00 0.00 28 1008.2
20260510001528 33 171 1.6 6.4 0.00 0.00 0.00 28 1008.2
20260510000052 33 155 1.6 8.0 0.00 0.00 0.00 26 1008.2
20260509234529 33 177 1.6 8.0 0.00 0.00 0.00 27 1008.2
20260509233028 34 212 3.2 6.4 0.00 0.00 0.00 26 1008.1
20260509231524 34 162 3.2 6.4 0.00 0.00 0.00 26 1008.3
20260509230026 35 183 1.6 4.8 0.00 0.00 0.00 24 1008.5
20260509224528 35 170 3.2 6.4 0.00 0.00 0.00 24 1008.4
20260509223028 35 75 3.2 8.0 0.00 0.00 0.00 27 1008.5
20260509221523 35 131 3.2 6.4 0.00 0.00 0.00 29 1008.6
20260509220012 35 285 1.6 11.3 0.00 0.00 0.00 25 1008.6
20260509214520 35 177 1.6 9.7 0.00 0.00 0.00 28 1008.7
20260509213021 35 236 3.2 6.4 0.00 0.00 0.00 28 1008.8
20260509211504 34 159 1.6 6.4 0.00 0.00 0.00 30 1009.1
20260509210008 34 133 1.6 8.0 0.00 0.00 0.00 28 1009.2
20260509204509 34 165 3.2 8.0 0.00 0.00 0.00 28 1009.5
20260509203029 34 216 1.6 8.0 0.00 0.00 0.00 32 1009.7
20260509201530 34 164 1.6 14.5 0.00 0.00 0.00 32 1009.9
20260509200024 33 201 1.6 8.0 0.00 0.00 0.00 34 1009.9
20260509194509 33 38 1.6 9.7 0.00 0.00 0.00 32 1010.2
20260509193028 33 208 1.6 9.7 0.00 0.00 0.00 33 1010.4
20260509191524 34 223 3.2 6.4 0.00 0.00 0.00 33 1010.6
20260509190022 33 220 3.2 9.7 0.00 0.00 0.00 35 1010.7
20260509184538 33 143 3.2 6.4 0.00 0.00 0.00 36 1010.8
20260509183011 33 79 3.2 12.9 0.00 0.00 0.00 37 1011.0
20260509181511 33 231 1.6 4.8 0.00 0.00 0.00 38 1011.2
20260509180016 32 336 1.6 9.7 0.00 0.00 0.00 37 1011.3
20260509174521 32 173 3.2 11.3 0.00 0.00 0.00 40 1011.7
20260509173022 32 147 1.6 9.7 0.00 0.00 0.00 42 1011.9
20260509171510 31 134 1.6 8.0 0.00 0.00 0.00 43 1012.1
20260509170015 31 252 0.0 6.4 0.00 0.00 0.00 45 1012.2
20260509164519 31 187 1.6 6.4 0.00 0.00 0.00 46 1012.3
20260509163025 30 233 1.6 8.0 0.00 0.00 0.00 47 1012.3
20260509161526 30 233 1.6 4.8 0.00 0.00 0.00 49 1012.4
20260509160012 29 124 1.6 3.2 0.00 0.00 0.00 52 1012.4
20260509154517 28 124 1.6 6.4 0.00 0.00 0.00 56 1012.3
20260509153030 27 293 1.6 4.8 0.00 0.00 0.00 59 1012.5
20260509151522 26 289 1.6 4.8 0.00 0.00 0.00 60 1012.6
20260509150031 26 235 1.6 4.8 0.00 0.00 0.00 63 1012.6
20260509144532 25 256 1.6 4.8 0.00 0.00 0.00 66 1012.7
20260509143020 24 232 1.6 6.4 0.00 0.00 0.00 69 1012.7
20260509141529 23 240 1.6 3.2 0.00 0.00 0.00 73 1012.7
20260509140024 22 246 1.6 4.8 0.00 0.00 0.00 77 1012.8
20260509134544 21 217 1.6 4.8 0.00 0.00 0.00 81 1012.8
20260509133026 20 255 0.0 1.6 0.00 0.00 0.00 85 1012.8
20260509131516 18 259 0.0 0.0 0.00 0.00 0.00 89 1012.7
20260509130004 18 248 0.0 0.0 0.00 0.00 0.00 89 1012.7
20260509124507 18 250 0.0 3.2 0.00 0.00 0.00 88 1012.4
20260509123009 17 259 0.0 4.8 0.00 0.00 0.00 89 1012.4
20260509121527 17 260 0.0 1.6 0.00 0.00 0.00 88 1012.1
20260509120020 17 163 0.0 3.2 0.00 0.00 0.00 88 1012.1
20260509114515 17 184 0.0 3.2 0.00 0.00 0.00 87 1011.8
20260509113012 17 238 0.0 0.0 0.00 0.00 0.00 86 1011.7
20260509111512 17 234 0.0 0.0 0.00 0.00 0.00 85 1011.6
20260509110014 17 201 0.0 4.8 0.00 0.00 0.00 85 1011.4
20260509104535 18 205 1.6 3.2 0.00 0.00 0.00 83 1011.4
20260509103005 18 173 1.6 3.2 0.00 0.00 0.00 81 1011.6
20260509101509 18 150 0.0 0.0 0.00 0.00 0.00 79 1011.4
20260509100012 18 156 0.0 4.8 0.00 0.00 0.00 78 1011.4
20260509094527 18 153 0.0 3.2 0.00 0.00 0.00 77 1011.6
20260509093020 18 208 0.0 8.0 0.00 0.00 0.00 76 1011.7
20260509091506 19 58 0.0 9.7 0.00 0.00 0.00 75 1011.8
20260509090010 19 150 0.0 4.8 0.00 0.00 0.00 75 1011.7
20260509084512 19 147 0.0 6.4 0.00 0.00 0.00 75 1011.9
20260509083018 19 136 1.6 11.3 0.00 0.00 0.00 76 1012.0
20260509081527 19 125 4.8 16.1 0.00 0.00 0.00 77 1012.2
20260509080007 20 205 1.6 11.3 0.00 0.00 0.00 78 1012.5
20260509074509 20 87 6.4 12.9 0.00 0.00 0.00 79 1012.4
20260509073016 20 98 6.4 19.3 0.00 0.00 0.00 83 1013.1
20260509071520 21 76 4.8 12.9 0.00 0.00 0.00 86 1013.1
20260509070024 21 93 4.8 11.3 0.00 0.00 0.00 86 1013.1
20260509064532 20 72 1.6 4.8 0.00 0.00 0.00 87 1013.0
20260509063019 20 125 0.0 1.6 0.00 0.00 0.00 87 1011.6
20260509061516 20 162 0.0 3.2 0.00 0.00 0.00 87 1011.6
20260509060022 20 142 0.0 3.2 0.00 0.00 0.00 86 1011.5
20260509054532 21 304 1.6 4.8 0.00 0.00 0.00 86 1012.0
20260509053028 21 316 6.4 12.9 0.00 0.00 0.00 85 1011.9
20260509051511 21 172 0.0 6.4 0.00 0.00 0.00 85 1010.5
20260509050020 21 162 3.2 9.7 0.00 0.00 0.00 84 1010.4